Location: Lecco
(45.8566°N, 9.3977°E)
Time: 13:16:55
(UTC+02:00)

Vanguard 2 Rocket - Pass Details

Date: 17 August 2020
Orbit: 554 x 3326 km, 32.9° (Epoch: 24 September)

Event Time Altitude Azimuth Distance (km) Brightness Sun altitude
Rises 20:28:27 0° 255° (WSW) 3,452 10.9 -1.1°
Reaches altitude 10° 20:30:57 10° 242° (WSW) 2,778 10.1 -1.5°
Maximum altitude 20:36:34 27° 186° (S) 2,361 8.9 -2.4°
Drops below altitude 10° 20:45:08 10° 135° (SE) 4,370 9.8 -3.8°
Enters shadow 20:48:40 - 128° (SE) 5,409 10.2 -4.4°
Sets 20:50:19 0° 126° (SE) 5,890 - -4.6°
